Axis, AL (36505)

3:25 PM CST on February 08, 2016 (GMT -0600)
APRSWXNET | | Change Station
CLOSE
Current Station
Personal Weather Station
Location: Chunchula, AL
Elevation: 269 ft
Nearby Weather Stations
Active Advisory: Wind Advisory

Elev 269 ft 30.98 °N, 88.12 °W | Updated 17 minutes ago

Clear
Clear
56 °F
Feels Like 56 °F
N
5
Wind Variable Wind from West
Gusts 15.0 mph

Today
High -- | Low -- °F
--% Chance of Precip.
Yesterday
High -- | Low -- °F
Precip. -- in
Pressure 29.92 in
Visibility 10.0 miles
Clouds Few 7000 ft
Dew Point 24 °F
Humidity 29%
Rainfall in
Snow Depth Not available.
6:39 AM 5:33 PM
New Moon, 0% visible
METAR KMOB 082056Z 30014G23KT 270V330 10SM FEW070 13/M07 A2992 RMK AO2 PK WND 27026/2012 SLP130 T01331067 56015
Pressure 29.92 in
Visibility 10.0 miles
Clouds Few 7000 ft
Dew Point 24 °F
Humidity 29%
Rainfall in
Snow Depth Not available.
6:39 AM 5:33 PM
New Moon, 0% visible
METAR KMOB 082056Z 30014G23KT 270V330 10SM FEW070 13/M07 A2992 RMK AO2 PK WND 27026/2012 SLP130 T01331067 56015

10-Day Weather Forecast

Almanac

Astronomy

Feb. 08, 2016 Rise Set
Actual Time
Civil Twilight
Nautical Twilight
Astronomical Twilight
Moon
Length of Visible Light
Length of Day
Tomorrow will be .
, % of the Moon is Illuminated

Today's Extremes

State Highs State Lows

Community

WunderPhotos

Upload Photos

1,891,516 photos uploaded!

WunderBlog® & News

Nearby

Air Quality

  Air Quality AQ Index Pollutant
Not available.

Snow Depth

Station Depth Elevation

Earthquake Activity

City Distance Mag. Time & Date
Minimum magnitude displayed is 2.5.

Coastal Water Temperatures

Place Temperature

Stations

Nearby Weather Stations

Station Location Temp. Windchill Dew Point Humidity Wind Precip. Elev Updated Type
                   

Watches & Warnings

Wind Advisory
Issued: 1:43 PM CST Feb. 8, 2016 – National Weather Service

... Wind Advisory remains in effect until 6 PM CST this evening...

* timing... this afternoon.

* Winds... west to northwest and increasing to 20 to 25 mph with
frequent higher gusts in excess of 30 mph.

Precautionary/preparedness actions...

A Wind Advisory means that winds of 30 to 39 mph are expected.
Winds this strong can make driving difficult... especially for
high profile vehicles. Use extra caution.